Oceana NAS, VA

11:29 PM EDT on May 26, 2017 (GMT -0400)
Oceana Naval Air Station

Weather History for KNTU - January, 2013

Change the Weather History Date:

Wednesday, January 23, 2013

  Actual Average Record
Temperature  
Mean Temperature 27 °F -  
Max Temperature 33 °F 45 °F 72 °F (1999)
Min Temperature 21 °F 29 °F 12 °F (2014)
Degree Days  
Heating Degree Days 38    
Moisture  
Dew Point 5 °F    
Average Humidity 39    
Maximum Humidity 66    
Minimum Humidity 26    
Precipitation  
Precipitation 0.00 in - - ()
Sea Level Pressure  
Sea Level Pressure 30.27 in    
Wind  
Wind Speed 7 mph (WNW)    
Max Wind Speed 14 mph    
Max Gust Speed 22 mph    
Visibility 10 miles    
Events      
Averages and records for this station are not official NWS values.
T = Trace of Precipitation, MM = Missing Value Source: NWS Daily Summary

Daily Weather History Graph

Daily Weather History Graph

Search for Another Location

Airport or City:

Trip Planner

Search our weather history database for the weather conditions in past years. The results will help you decide how hot, cold, wet, or windy it might be!

Date:

Astronomy

Jan. 23, 2013 Rise Set
Actual Time 7:12 AM EST 5:20 PM EST
Civil Twilight 6:44 AM EST 5:47 PM EST
Nautical Twilight 6:13 AM EST 6:19 PM EST
Astronomical Twilight 5:42 AM EST 6:50 PM EST
Moon 2:29 PM EST (1/23) 4:20 AM EST (1/23)
Length of Visible Light 11h 03m
Length of Day
10h 07m
Waxing Gibbous, 89% of the Moon is Illuminated
Jan 23
Waxing Gibbous
Jan 26
Full
Feb 3
Last Quarter
Feb 10
New
Feb 17
First Quarter

Hourly Weather History & Observations

Time (EST) Temp. Windchill Dew Point Humidity Pressure Visibility Wind Dir Wind Speed Gust Speed Precip Events Conditions
12:56 AM 26.1 °F 21.9 °F 3.0 °F 37% 30.27 in 10.0 mi NW 3.5 mph - N/A   Partly Cloudy
1:56 AM 26.1 °F 16.2 °F 12.9 °F 58% 30.28 in 10.0 mi NNE 10.4 mph - N/A   Clear
2:56 AM 26.1 °F 18.4 °F 12.0 °F 55% 30.30 in 10.0 mi North 6.9 mph - N/A   Mostly Cloudy
3:56 AM 25.0 °F 14.2 °F 12.0 °F 58% 30.31 in 10.0 mi North 11.5 mph - N/A   Mostly Cloudy
4:56 AM 25.0 °F 14.8 °F 12.0 °F 58% 30.31 in 10.0 mi North 10.4 mph - N/A   Overcast
5:56 AM 21.9 °F 17.2 °F 12.0 °F 66% 30.32 in 10.0 mi North 3.5 mph - N/A   Scattered Clouds
6:56 AM 21.0 °F 14.6 °F 8.1 °F 57% 30.33 in 10.0 mi WNW 4.6 mph - N/A   Scattered Clouds
7:56 AM 23.0 °F 15.8 °F 8.1 °F 53% 30.35 in 10.0 mi West 5.8 mph - N/A   Scattered Clouds
8:56 AM 27.0 °F 17.3 °F 3.9 °F 37% 30.36 in 10.0 mi NW 10.4 mph - N/A   Scattered Clouds
9:56 AM 28.0 °F 17.0 °F 1.9 °F 33% 30.38 in 10.0 mi NW 13.8 mph - N/A   Scattered Clouds
10:56 AM 28.0 °F 19.3 °F -0.0 °F 30% 30.36 in 10.0 mi NW 9.2 mph - N/A   Mostly Cloudy
11:56 AM 28.9 °F 18.2 °F -2.0 °F 26% 30.32 in 10.0 mi West 13.8 mph 21.9 mph N/A   Mostly Cloudy
12:56 PM 30.9 °F 23.5 °F 1.9 °F 29% 30.29 in 10.0 mi WNW 8.1 mph - N/A   Mostly Cloudy
1:56 PM 32.0 °F 25.6 °F 1.0 °F 27% 30.25 in 10.0 mi West 6.9 mph - N/A   Mostly Cloudy
2:56 PM 33.1 °F 24.9 °F 1.0 °F 26% 30.24 in 10.0 mi West 10.4 mph 18.4 mph N/A   Scattered Clouds
3:56 PM 32.0 °F 27.5 °F -0.0 °F 26% 30.24 in 10.0 mi West 4.6 mph - N/A   Scattered Clouds
4:56 PM 30.9 °F 25.2 °F 1.0 °F 28% 30.24 in 10.0 mi West 5.8 mph - N/A   Scattered Clouds
5:56 PM 30.0 °F 25.2 °F -0.9 °F 27% 30.24 in 10.0 mi SSW 4.6 mph - N/A   Scattered Clouds
6:56 PM 30.9 °F 27.5 °F 3.0 °F 31% 30.22 in 10.0 mi South 3.5 mph - N/A   Mostly Cloudy
7:56 PM 30.9 °F 26.2 °F 5.0 °F 33% 30.20 in 10.0 mi SSE 4.6 mph - N/A   Overcast
8:56 PM 30.9 °F 26.2 °F 7.0 °F 37% 30.20 in 10.0 mi South 4.6 mph - N/A   Overcast
9:56 PM 32.0 °F 27.5 °F 6.1 °F 34% 30.18 in 10.0 mi South 4.6 mph - N/A   Overcast
10:56 PM 32.0 °F 27.5 °F 8.1 °F 37% 30.15 in 10.0 mi South 4.6 mph - N/A   Overcast
11:56 PM 33.1 °F 28.7 °F 12.0 °F 42% 30.12 in 10.0 mi South 4.6 mph - N/A   Overcast